Date,TemperatureHighF,TemperatureAvgF,TemperatureLowF,DewpointHighF,DewpointAvgF,DewpointLowF,HumidityHigh,HumidityAvg,HumidityLow,PressureMaxIn,PressureMinIn,WindSpeedMaxMPH,WindSpeedAvgMPH,GustSpeedMaxMPH,PrecipitationSumIn
2013-3-1,46.4,38.2,32.5,22.0,15.6,10.9,40,39,37,0.00,0.00,0,0,4,0.00
2013-3-2,37.4,32.3,27.3,15.0,10.8,6.7,41,40,39,0.00,0.00,0,0,3,0.00
2013-3-3,40.1,32.3,27.7,17.1,10.8,7.1,41,40,39,0.00,0.00,4,0,4,0.00
2013-3-4,40.3,31.2,23.9,17.3,10.0,4.0,42,41,39,0.00,0.00,3,0,4,0.20
2013-3-5,46.9,34.6,19.0,22.0,12.7,0.2,43,40,37,0.00,0.00,4,0,6,0.00
2013-3-6,39.6,35.4,32.7,23.7,16.6,12.2,68,47,39,0.00,0.00,3,0,6,0.39
2013-3-7,47.7,38.8,29.1,22.7,16.0,8.4,41,39,37,0.00,0.00,4,0,5,0.12
2013-3-8,48.9,39.8,32.0,23.8,16.7,10.4,41,39,37,0.00,0.00,4,0,5,0.20
2013-3-9,57.6,39.1,22.1,30.1,16.1,3.0,43,39,35,0.00,0.00,3,0,4,0.00
2013-3-10,63.7,46.4,25.0,34.7,21.6,5.1,42,37,34,0.00,0.00,6,1,8,0.00
2013-3-11,61.3,52.0,42.6,32.8,25.9,19.0,39,36,34,0.00,0.00,8,1,10,0.00
2013-3-12,57.0,50.1,39.9,35.4,25.8,16.8,50,39,35,0.00,0.00,8,1,8,0.51
2013-3-13,49.8,37.9,27.0,24.5,15.2,6.4,41,39,37,0.00,0.00,4,0,5,0.00
2013-3-14,42.8,35.8,30.0,18.6,13.6,9.0,41,40,38,0.00,0.00,5,1,5,0.00
2013-3-15,58.3,41.9,28.2,30.8,18.2,7.6,41,38,35,0.00,0.00,4,0,5,0.00
2013-3-16,50.0,41.1,35.2,24.6,17.8,13.4,40,39,36,0.00,0.00,4,0,5,0.00
2013-3-17,41.2,38.0,35.4,17.6,15.6,13.5,40,40,38,0.00,0.00,4,0,4,0.00
2013-3-18,35.6,34.4,32.5,16.1,13.5,12.1,50,42,40,0.00,0.00,5,0,6,0.00
2013-3-19,55.2,41.1,32.7,28.8,19.7,14.6,51,42,36,0.00,0.00,5,1,6,0.24
2013-3-20,51.8,41.2,28.6,25.6,17.8,7.9,41,38,36,0.00,0.00,5,0,5,0.00
2013-3-21,36.7,31.0,21.4,14.6,9.8,1.9,42,41,40,0.00,0.00,4,0,4,0.00
2013-3-22,43.0,31.9,20.3,18.6,10.5,1.4,43,40,38,0.00,0.00,4,0,4,0.00
2013-3-23,50.9,35.2,19.2,24.9,13.0,0.4,43,40,36,0.00,0.00,4,0,4,0.00
2013-3-24,46.4,34.7,23.2,22.0,12.8,3.5,42,40,37,0.00,0.00,4,0,4,0.00
2013-3-25,41.0,35.2,32.2,18.0,14.4,12.1,48,42,39,0.00,0.00,0,0,0,0.35
2013-3-26,49.5,38.8,30.7,24.3,17.4,13.2,50,42,37,0.00,0.00,3,0,4,0.16
2013-3-27,48.9,40.0,32.0,23.6,16.9,10.6,41,39,37,0.00,0.00,4,0,4,0.00
2013-3-28,50.0,41.4,32.4,24.6,18.0,10.8,40,39,37,0.00,0.00,4,0,4,0.00
2013-3-29,56.5,44.3,32.5,29.2,20.2,10.9,40,38,35,0.00,0.00,3,0,4,0.00
2013-3-30,58.3,41.3,26.1,30.6,17.8,6.1,44,39,35,0.00,0.00,2,0,4,0.00
2013-3-31,49.6,43.9,32.9,25.9,21.2,11.2,50,40,37,0.00,0.00,5,0,5,0.12